| time (UTC) | temp F | wind direction | speed knots | gust knots | rain 1hr in | rain 24hr in | rain mn in | humidity % | barometer mb |
| 20260504043504 | 56 | 0 | 0.0 | 0.0 | 0.00 | 0.00 | 0.00 | 69 | 1006.3 |
| 20260504043007 | 56 | 0 | 0.0 | 0.0 | 0.00 | 0.00 | 0.00 | 69 | 1006.3 |
| 20260504042503 | 56 | 0 | 0.0 | 0.0 | 0.00 | 0.00 | 0.00 | 68 | 1006.2 |
| 20260504041003 | 57 | 0 | 0.0 | 0.0 | 0.00 | 0.00 | 0.00 | 67 | 1006.4 |
| 20260504040504 | 57 | 0 | 0.0 | 0.0 | 0.00 | 0.00 | 0.00 | 67 | 1006.4 |
| 20260504040009 | 57 | 0 | 0.0 | 0.0 | 0.00 | 0.00 | 0.00 | 64 | 1006.5 |
| 20260504035503 | 58 | 0 | 0.0 | 0.0 | 0.00 | 0.00 | 0.00 | 66 | 1006.7 |
| 20260504035003 | 58 | 0 | 0.0 | 0.0 | 0.00 | 0.00 | 0.00 | 63 | 1006.7 |
| 20260504034508 | 58 | 0 | 0.0 | 0.0 | 0.00 | 0.00 | 0.00 | 64 | 1006.7 |
| 20260504033008 | 60 | 0 | 0.0 | 0.0 | 0.00 | 0.00 | 0.00 | 63 | 1006.9 |
| 20260504032004 | 60 | 0 | 0.0 | 0.0 | 0.00 | 0.00 | 0.00 | 61 | 1006.9 |
| 20260504030504 | 61 | 0 | 0.0 | 0.0 | 0.00 | 0.00 | 0.00 | 59 | 1007.0 |
| 20260504025504 | 61 | 0 | 0.0 | 0.0 | 0.00 | 0.00 | 0.00 | 58 | 1007.0 |
| 20260504025003 | 62 | 0 | 0.0 | 0.0 | 0.00 | 0.00 | 0.00 | 59 | 1007.1 |
| 20260504024507 | 62 | 0 | 0.0 | 0.0 | 0.00 | 0.00 | 0.00 | 58 | 1007.0 |
| 20260504024004 | 62 | 0 | 0.0 | 0.0 | 0.00 | 0.00 | 0.00 | 58 | 1007.1 |
| 20260504023503 | 62 | 0 | 0.0 | 0.0 | 0.00 | 0.00 | 0.00 | 56 | 1007.1 |
| 20260504023008 | 62 | 0 | 0.0 | 0.0 | 0.00 | 0.00 | 0.00 | 56 | 1007.1 |
| 20260504022503 | 62 | 0 | 0.0 | 0.0 | 0.00 | 0.00 | 0.00 | 57 | 1007.1 |
| 20260504021508 | 63 | 0 | 0.0 | 0.0 | 0.00 | 0.00 | 0.00 | 55 | 1007.1 |
| 20260504021005 | 63 | 0 | 0.0 | 0.0 | 0.00 | 0.00 | 0.00 | 55 | 1007.2 |
| 20260504020503 | 64 | 0 | 0.0 | 0.0 | 0.00 | 0.00 | 0.00 | 55 | 1007.2 |
| 20260504020008 | 64 | 0 | 0.0 | 0.0 | 0.00 | 0.00 | 0.00 | 54 | 1007.3 |
| 20260504015503 | 64 | 0 | 0.0 | 0.0 | 0.00 | 0.00 | 0.00 | 53 | 1007.4 |
| 20260504015003 | 65 | 0 | 0.0 | 0.0 | 0.00 | 0.00 | 0.00 | 52 | 1007.4 |
| 20260504014508 | 66 | 0 | 0.0 | 0.0 | 0.00 | 0.00 | 0.00 | 51 | 1007.4 |
| 20260504013503 | 67 | 0 | 0.0 | 0.0 | 0.00 | 0.00 | 0.00 | 49 | 1007.4 |
| 20260504013008 | 68 | 0 | 0.0 | 0.0 | 0.00 | 0.00 | 0.00 | 47 | 1007.4 |
| 20260504012504 | 68 | 0 | 0.0 | 0.0 | 0.00 | 0.00 | 0.00 | 47 | 1007.4 |
| 20260504012003 | 69 | 0 | 0.0 | 0.0 | 0.00 | 0.00 | 0.00 | 46 | 1007.3 |
| 20260504011508 | 70 | 0 | 0.0 | 0.0 | 0.00 | 0.00 | 0.00 | 44 | 1007.3 |
| 20260504011003 | 70 | 0 | 0.0 | 0.0 | 0.00 | 0.00 | 0.00 | 44 | 1007.4 |
| 20260504010503 | 71 | 184 | 0.0 | 0.9 | 0.00 | 0.00 | 0.00 | 42 | 1007.4 |
| 20260504010008 | 71 | 185 | 0.0 | 1.7 | 0.00 | 0.00 | 0.00 | 41 | 1007.5 |
| 20260504005505 | 72 | 182 | 0.0 | 1.7 | 0.00 | 0.00 | 0.00 | 41 | 1007.5 |
| 20260504005004 | 72 | 170 | 0.0 | 1.7 | 0.00 | 0.00 | 0.00 | 40 | 1007.6 |
| 20260504004508 | 73 | 171 | 0.0 | 1.7 | 0.00 | 0.00 | 0.00 | 39 | 1007.6 |
| 20260504004003 | 73 | 171 | 0.9 | 1.7 | 0.00 | 0.00 | 0.00 | 38 | 1007.7 |
| 20260504003503 | 74 | 215 | 0.9 | 1.7 | 0.00 | 0.00 | 0.00 | 37 | 1007.7 |
| 20260504003008 | 74 | 266 | 0.9 | 1.7 | 0.00 | 0.00 | 0.00 | 37 | 1007.7 |
| 20260504002503 | 75 | 271 | 0.9 | 1.7 | 0.00 | 0.00 | 0.00 | 36 | 1007.7 |
| 20260504002004 | 75 | 272 | 0.0 | 1.7 | 0.00 | 0.00 | 0.00 | 35 | 1007.7 |
| 20260504001507 | 75 | 273 | 0.0 | 0.9 | 0.00 | 0.00 | 0.00 | 35 | 1007.8 |
| 20260504000504 | 76 | 284 | 0.9 | 2.6 | 0.00 | 0.00 | 0.00 | 34 | 1007.9 |
| 20260504000008 | 76 | 289 | 0.0 | 2.6 | 0.00 | 0.00 | 0.00 | 34 | 1007.9 |
| 20260503235503 | 76 | 337 | 0.0 | 1.7 | 0.00 | 0.00 | 0.00 | 36 | 1007.9 |
| 20260503235003 | 76 | 339 | 0.0 | 1.7 | 0.00 | 0.00 | 0.00 | 36 | 1007.9 |
| 20260503234508 | 76 | 335 | 0.0 | 1.7 | 0.00 | 0.00 | 0.00 | 35 | 1007.9 |
| 20260503234003 | 76 | 344 | 0.9 | 1.7 | 0.00 | 0.00 | 0.00 | 36 | 1008.0 |
| 20260503233503 | 75 | 339 | 0.9 | 2.6 | 0.00 | 0.00 | 0.00 | 35 | 1008.0 |
| 20260503233008 | 75 | 307 | 0.9 | 2.6 | 0.00 | 0.00 | 0.00 | 36 | 1008.0 |
| 20260503232503 | 75 | 238 | 0.9 | 2.6 | 0.00 | 0.00 | 0.00 | 38 | 1008.0 |
| 20260503232004 | 75 | 216 | 0.9 | 2.6 | 0.00 | 0.00 | 0.00 | 36 | 1008.1 |
| 20260503231507 | 75 | 221 | 0.9 | 2.6 | 0.00 | 0.00 | 0.00 | 37 | 1008.1 |
| 20260503231004 | 75 | 217 | 0.0 | 1.7 | 0.00 | 0.00 | 0.00 | 37 | 1008.2 |
| 20260503230504 | 75 | 193 | 0.0 | 1.7 | 0.00 | 0.00 | 0.00 | 39 | 1008.2 |
| 20260503230009 | 75 | 339 | 0.9 | 2.6 | 0.00 | 0.00 | 0.00 | 36 | 1008.2 |
| 20260503225003 | 75 | 323 | 1.7 | 4.3 | 0.00 | 0.00 | 0.00 | 35 | 1008.3 |
| 20260503223503 | 75 | 307 | 0.9 | 4.3 | 0.00 | 0.00 | 0.00 | 36 | 1008.2 |
| 20260503222504 | 75 | 248 | 0.9 | 3.5 | 0.00 | 0.00 | 0.00 | 36 | 1008.4 |
| 20260503221507 | 75 | 261 | 0.9 | 3.5 | 0.00 | 0.00 | 0.00 | 35 | 1008.4 |
| 20260503220504 | 75 | 243 | 0.9 | 2.6 | 0.00 | 0.00 | 0.00 | 39 | 1008.5 |
| 20260503215503 | 75 | 239 | 1.7 | 4.3 | 0.00 | 0.00 | 0.00 | 35 | 1008.4 |
| 20260503215004 | 75 | 231 | 1.7 | 4.3 | 0.00 | 0.00 | 0.00 | 38 | 1008.4 |
| 20260503214507 | 75 | 231 | 1.7 | 4.3 | 0.00 | 0.00 | 0.00 | 38 | 1008.5 |
| 20260503214005 | 75 | 226 | 0.9 | 4.3 | 0.00 | 0.00 | 0.00 | 36 | 1008.7 |
| 20260503213503 | 76 | 224 | 0.9 | 2.6 | 0.00 | 0.00 | 0.00 | 36 | 1008.8 |
| 20260503213008 | 75 | 267 | 0.9 | 3.5 | 0.00 | 0.00 | 0.00 | 38 | 1008.9 |
| 20260503212504 | 75 | 314 | 1.7 | 3.5 | 0.00 | 0.00 | 0.00 | 37 | 1008.9 |
| 20260503212004 | 74 | 311 | 2.6 | 5.2 | 0.00 | 0.00 | 0.00 | 34 | 1009.0 |
| 20260503211507 | 75 | 324 | 1.7 | 5.2 | 0.00 | 0.00 | 0.00 | 34 | 1009.0 |
| 20260503211003 | 75 | 345 | 1.7 | 5.2 | 0.00 | 0.00 | 0.00 | 34 | 1009.1 |
| 20260503210504 | 76 | 309 | 0.9 | 5.2 | 0.00 | 0.00 | 0.00 | 35 | 1009.2 |
| 20260503210007 | 75 | 347 | 0.9 | 4.3 | 0.00 | 0.00 | 0.00 | 38 | 1009.4 |
| 20260503205503 | 75 | 20 | 1.7 | 6.1 | 0.00 | 0.00 | 0.00 | 34 | 1009.4 |
| 20260503204508 | 76 | 279 | 0.9 | 3.5 | 0.00 | 0.00 | 0.00 | 35 | 1009.5 |
| 20260503204003 | 75 | 287 | 0.9 | 3.5 | 0.00 | 0.00 | 0.00 | 34 | 1009.6 |
| 20260503203503 | 76 | 18 | 1.7 | 5.2 | 0.00 | 0.00 | 0.00 | 35 | 1009.7 |
| 20260503203007 | 76 | 22 | 0.9 | 5.2 | 0.00 | 0.00 | 0.00 | 34 | 1009.7 |
| 20260503202504 | 75 | 25 | 0.9 | 4.3 | 0.00 | 0.00 | 0.00 | 35 | 1009.7 |
| 20260503202004 | 75 | 352 | 1.7 | 7.8 | 0.00 | 0.00 | 0.00 | 37 | 1009.8 |
| 20260503201507 | 74 | 335 | 2.6 | 7.8 | 0.00 | 0.00 | 0.00 | 34 | 1010.0 |
| 20260503201003 | 74 | 345 | 3.5 | 7.8 | 0.00 | 0.00 | 0.00 | 35 | 1010.0 |
| 20260503200504 | 74 | 354 | 3.5 | 8.7 | 0.00 | 0.00 | 0.00 | 35 | 1010.1 |
| 20260503200007 | 74 | 343 | 3.5 | 8.7 | 0.00 | 0.00 | 0.00 | 35 | 1010.1 |
| 20260503195504 | 74 | 323 | 1.7 | 7.8 | 0.00 | 0.00 | 0.00 | 35 | 1010.2 |
| 20260503194507 | 74 | 15 | 1.7 | 4.3 | 0.00 | 0.00 | 0.00 | 38 | 1010.2 |
| 20260503194003 | 74 | 6 | 0.9 | 4.3 | 0.00 | 0.00 | 0.00 | 36 | 1010.2 |
| 20260503193504 | 74 | 312 | 0.9 | 5.2 | 0.00 | 0.00 | 0.00 | 36 | 1010.3 |
| 20260503192504 | 73 | 346 | 2.6 | 7.8 | 0.00 | 0.00 | 0.00 | 35 | 1010.4 |
| 20260503192003 | 73 | 345 | 2.6 | 7.8 | 0.00 | 0.00 | 0.00 | 35 | 1010.4 |
| 20260503191508 | 74 | 336 | 2.6 | 8.7 | 0.00 | 0.00 | 0.00 | 36 | 1010.5 |
| 20260503191003 | 73 | 331 | 3.5 | 9.6 | 0.00 | 0.00 | 0.00 | 36 | 1010.5 |
| 20260503190503 | 74 | 349 | 3.5 | 11.3 | 0.00 | 0.00 | 0.00 | 36 | 1010.6 |
| 20260503190008 | 74 | 7 | 3.5 | 11.3 | 0.00 | 0.00 | 0.00 | 35 | 1010.6 |
| 20260503185503 | 74 | 13 | 2.6 | 7.0 | 0.00 | 0.00 | 0.00 | 35 | 1010.6 |
| 20260503185004 | 73 | 19 | 3.5 | 12.2 | 0.00 | 0.00 | 0.00 | 36 | 1010.5 |
| 20260503184507 | 73 | 12 | 3.5 | 12.2 | 0.00 | 0.00 | 0.00 | 36 | 1010.7 |
| 20260503184004 | 74 | 15 | 2.6 | 8.7 | 0.00 | 0.00 | 0.00 | 37 | 1010.6 |
| 20260503183008 | 73 | 22 | 1.7 | 7.8 | 0.00 | 0.00 | 0.00 | 37 | 1010.7 |
| 20260503182503 | 73 | 24 | 1.7 | 7.0 | 0.00 | 0.00 | 0.00 | 37 | 1010.7 |
| 20260503182003 | 73 | 1 | 1.7 | 6.1 | 0.00 | 0.00 | 0.00 | 38 | 1010.9 |
| 20260503180503 | 73 | 12 | 1.7 | 11.3 | 0.00 | 0.00 | 0.00 | 38 | 1011.2 |
| 20260503180007 | 73 | 10 | 1.7 | 6.1 | 0.00 | 0.00 | 0.00 | 40 | 1011.2 |
| 20260503175503 | 72 | 346 | 1.7 | 7.0 | 0.00 | 0.00 | 0.00 | 39 | 1011.3 |
| 20260503175003 | 72 | 347 | 1.7 | 7.8 | 0.00 | 0.00 | 0.00 | 38 | 1011.3 |
| 20260503174507 | 72 | 11 | 1.7 | 7.8 | 0.00 | 0.00 | 0.00 | 39 | 1011.4 |
| 20260503174004 | 71 | 15 | 2.6 | 7.0 | 0.00 | 0.00 | 0.00 | 38 | 1011.3 |
| 20260503173503 | 70 | 22 | 2.6 | 7.0 | 0.00 | 0.00 | 0.00 | 38 | 1011.4 |
| 20260503173007 | 71 | 25 | 2.6 | 7.0 | 0.00 | 0.00 | 0.00 | 36 | 1011.4 |
| 20260503172504 | 71 | 18 | 2.6 | 9.6 | 0.00 | 0.00 | 0.00 | 38 | 1011.4 |
| 20260503172003 | 71 | 10 | 3.5 | 9.6 | 0.00 | 0.00 | 0.00 | 39 | 1011.5 |
| 20260503171003 | 70 | 352 | 3.5 | 10.4 | 0.00 | 0.00 | 0.00 | 37 | 1011.5 |
| 20260503170504 | 70 | 356 | 3.5 | 10.4 | 0.00 | 0.00 | 0.00 | 38 | 1011.5 |
| 20260503151003 | 62 | 332 | 1.7 | 5.2 | 0.00 | 0.00 | 0.00 | 54 | 1011.5 |
| 20260503150503 | 62 | 338 | 2.6 | 5.2 | 0.00 | 0.00 | 0.00 | 54 | 1011.5 |
| 20260503131004 | 56 | 240 | 0.9 | 2.6 | 0.00 | 0.00 | 0.00 | 58 | 1010.6 |
| 20260503130503 | 56 | 239 | 0.9 | 2.6 | 0.00 | 0.00 | 0.00 | 57 | 1010.5 |
| 20260503110504 | 53 | 217 | 0.0 | 0.9 | 0.00 | 0.00 | 0.00 | 58 | 1010.5 |
| 20260503090503 | 57 | 233 | 1.7 | 5.2 | 0.00 | 0.00 | 0.00 | 49 | 1009.9 |
| 20260503081507 | 56 | 198 | 0.9 | 5.2 | 0.00 | 0.00 | 0.00 | 49 | 1010.3 |
| 20260503080503 | 56 | 203 | 0.9 | 4.3 | 0.00 | 0.00 | 0.00 | 49 | 1010.5 |
| 20260503072503 | 56 | 196 | 1.7 | 4.3 | 0.00 | 0.00 | 0.00 | 48 | 1010.7 |
| 20260503072003 | 56 | 192 | 0.9 | 3.5 | 0.00 | 0.00 | 0.00 | 48 | 1010.7 |
| 20260503071508 | 56 | 190 | 0.9 | 3.5 | 0.00 | 0.00 | 0.00 | 48 | 1010.8 |
| 20260503070504 | 56 | 197 | 1.7 | 3.5 | 0.00 | 0.00 | 0.00 | 47 | 1010.8 |
| 20260503055003 | 58 | 199 | 2.6 | 7.0 | 0.00 | 0.00 | 0.00 | 45 | 1011.8 |
| 20260503054508 | 58 | 195 | 2.6 | 7.0 | 0.00 | 0.00 | 0.00 | 44 | 1011.7 |
| 20260503054003 | 58 | 198 | 1.7 | 8.7 | 0.00 | 0.00 | 0.00 | 44 | 1011.7 |
| 20260503053504 | 58 | 202 | 2.6 | 8.7 | 0.00 | 0.00 | 0.00 | 45 | 1011.8 |
| 20260503053008 | 58 | 201 | 1.7 | 4.3 | 0.00 | 0.00 | 0.00 | 45 | 1011.9 |
| 20260503052504 | 58 | 200 | 2.6 | 5.2 | 0.00 | 0.00 | 0.00 | 45 | 1011.8 |
| 20260503052003 | 58 | 205 | 2.6 | 5.2 | 0.00 | 0.00 | 0.00 | 45 | 1011.8 |
| 20260503050503 | 57 | 199 | 2.6 | 7.0 | 0.00 | 0.00 | 0.00 | 46 | 1011.8 |
| 20260503050010 | 57 | 197 | 1.7 | 7.0 | 0.00 | 0.00 | 0.00 | 46 | 1011.9 |
| 20260503045504 | 57 | 200 | 1.7 | 7.0 | 0.00 | 0.00 | 0.00 | 46 | 1012.0 |
| 20260503045004 | 57 | 197 | 2.6 | 7.0 | 0.00 | 0.00 | 0.00 | 47 | 1012.0 |
| 20260503044003 | 57 | 197 | 2.6 | 5.2 | 0.00 | 0.00 | 0.00 | 46 | 1012.1 |